SCP
0 0 0 0 0 0 0 0 0 0 0 0 0 0 0 0 0 0 0 0 0 0 0 0 0 0 0 0 0 0 0 0 0 0 0 0 0 0 0 0 0 0 0 0
0 0 0 0 0 0 0 0 0 0 0 0 0 0 0 0 0 0 0 0 0 0 0 0 0 0 0 0 0 0 0 0 0 0 0 0 0 0 0 0 0 0 0 0
0 0 0 0 0 0 0 0 0 0 0 0 0 0 0 0 0 0 0 0 0 0 0 0 0 0 0 0 0 0 0 0 0 0 0 0 0 0 0 0 0 0 0 0
0 0 0 0 0 0 0 0 0 0 0 0 0 0 0 0 0 0 0 0 0 0 0 0 0 0 0 0 0 0 0 0 0 0 0 0 0 0 0 0 0 0 0 0
0 0 0 0 0 0 0 0 0 0 0 0 0 0 0 0 0 0 0 0 0 0 0 0 0 0 0 0 0 0 0 0 0 0 0 0 0 0 0 0 0 0 0 0
0 0 0 0 0 0 0 0 0 0 0 0 0 0 0 0 0 0 0 0 0 0 0 0 0 0 0 0 0 0 0 0 0 0 0 0 0 0 0 0 0 0 0 0
0 0 0 0 0 0 0 0 0 0 0 0 0 0 0 0 0 0 0 0 0 0 0 0 0 0 0 0 0 0 0 0 0 0 0 0 0 0 0 0 0 0 0 0
0 0 0 0 0 0 0 0 0 0 0 0 0 0 0 0 0 0 0 0 0 0 0 0 0 0 0 0 0 0 0 0 0 0 0 0 0 0 0 0 0 0 0 0
0 0 0 0 0 0 0 0 0 0 0 0 0 0 0 0 0 0 0 0 0 0 0 0 0 0 0 0 0 0 0 0 0 0 0 0 0 0 0 0 0 0 0 0
0 0 0 0 0 0 0 0 0 0 0 0 0 0 0 0 0 0 0 0 0 0 0 0 0 0 0 0 0 0 0 0 0 0 0 0 0 0 0 0 0 0 0 0
0 0 0 0 0 0 0 0 0 0 0 0 0 0 0 0 0 0 0 0 0 0 0 0 0 0 0 0 0 0 0 0 0 0 0 0 0 0 0 0 0 0 0 0
0 0 0 0 0 0 0 0 0 0 0 0 0 0 0 0 0 0 0 0 0 0 0 0 0 0 0 0 0 0 0 0 0 0 0 0 0 0 0 0 0 0 0 0
0 0 0 0 0 0 0 0 0 0 0 0 0 0 0 0 0 0 0 0 0 0 0 0 0 0 0 0 0 0 0 0 0 0 0 0 0 0 0 0 0 0 0 0
0 0 0 0 0 0 0 0 0 0 0 0 0 0 0 0 0 0 0 0 0 0 0 0 0 0 0 0 0 0 0 0 0 0 0 0 0 0 0 0 0 0 0 0
0 0 0 0 0 0 0 0 0 0 0 0 0 0 0 0 0 0 0 0 0 0 0 0 0 0 0 0 0 0 0 0 0 0 0 0 0 0 0 0 0 0 0 0
0 0 0 0 0 0 0 0 0 0 0 0 0 0 0 0 0 0 0 0 0 0 0 0 0 0 0 0 0 0 0 0 0 0 0 0 0 0 0 0 0 0 0 0
0 0 0 0 0 0 0 0 0 0 0 0 0 0 0 0 0 0 0 0 0 0 0 0 0 0 0 0 0 0 0 0 0 0 0 0 0 0 0 0 0 0 0 0
0 0 0 0 0 0 0 0 0 0 0 0 0 0 0 0 0 0 0 0 0 0 0 0 0 0 0 0 0 0 0 0 0 0 0 0 0 0 0 0 0 0 0 0
0 0 0 0 0 0 0 0 0 0 0 0 0 0 0 0 0 0 0 0 0 0 0 0 0 0 0 0 0 0 0 0 0 0 0 0 0 0 0 0 0 0 0 0
0 0 0 0 0 0 0 0 0 0 0 0 0 0 0 0 0 0 0 0 0 0 0 0 0 0 0 0 0 0 0 0 0 0 0 0 0 0 0 0 0 0 0 0
0 0 0 0 0 0 0 0 0 0 0 0 0 0 0 0 0 0 0 0 0 0 0 0 0 0 0 0 0 0 0 0 0 0 0 0 0 0 0 0 0 0 0 0
0 0 0 0 0 0 0 0 0 0 0 0 0 0 0 0 0 0 0 0 0 0 0 0 0 0 0 0 0 0 0 0 0 0 0 0 0 0 0 0 0 0 0 0
0 0 0 0 0 0 0 0 0 0 0 0 0 0 0 0 0 0 0 0 0 0 0 0 0 0 0 0 0 0 0 0 0 0 0 0 0 0 0 0 0 0 0 0
0 0 0 0 0 0 0 0 0 0 0 0 0 0 0 0 0 0 0 0 0 0 0 0 0 0 0 0 0 0 0 0 0 0 0 0 0 0 0 0 0 0 0 0
0 0 0 0 0 0 0 0 0 0 0 0 0 0 0 0 0 0 0 0 0 0 0 0 0 0 0 0 0 0 0 0 0 0 0 0 0 0 0 0 0 0 0 0
0 0 0 0 0 0 0 0 0 0 0 0 0 0 0 0 0 0 0 0 0 0 0 0 0 0 0 0 0 0 0 0 0 0 0 0 0 0 0 0 0 0 0 0
Wind_Speed
6 5 9 10 13 11 8 7 7 3 6 5 8 11 9 11 10 9 9 10 9 8 8 7 6 5 5 5 6 6 7 6 5 5 5 6 6 6 7 7 9 10 9 9
5 12 13 8 7 9 10 9 9 6 4 2 6 11 9 13 13 12 13 12 11 10 9 8 7 6 6 6 5 6 5 5 5 5 5 6 6 6 6 6 8 9 9 9
12 5 7 12 10 7 9 10 10 7 3 4 4 9 13 11 12 11 11 11 11 13 12 10 9 7 7 6 5 5 6 7 8 8 8 8 6 5 5 6 6 7 8 9
10 8 3 6 10 9 9 8 9 8 5 5 7 7 8 10 11 13 11 10 11 12 12 11 10 9 8 6 6 6 7 8 8 8 7 8 7 7 5 5 5 7 8 8
9 7 8 8 8 9 3 3 1 4 5 6 6 10 8 8 10 15 14 12 11 12 13 12 11 10 8 7 6 6 6 7 7 7 8 10 10 9 7 6 7 7 6 7
8 2 5 4 2 7 7 4 2 0 2 7 10 13 10 10 13 12 17 16 13 13 12 12 10 9 8 7 6 6 7 7 7 8 9 10 12 11 10 8 7 5 4 5
7 8 3 3 5 4 7 6 2 4 6 10 10 13 11 7 6 9 14 17 15 14 14 14 13 11 10 9 8 7 8 8 7 8 9 9 10 10 10 9 7 6 4 4
10 10 17 12 11 10 11 10 9 8 7 6 6 12 7 3 4 4 6 13 15 15 14 14 13 12 11 10 9 9 9 8 8 9 9 8 8 7 7 7 7 6 5 4
11 8 8 13 7 10 8 10 8 4 1 4 9 8 5 1 2 2 7 13 16 16 15 14 13 12 11 11 10 10 10 9 9 9 9 8 8 8 8 8 7 6 5 5
5 4 5 6 4 4 4 7 5 7 6 8 10 12 10 10 13 11 11 15 16 16 15 15 14 12 11 10 8 9 9 9 9 9 8 7 8 8 8 8 8 7 6 5
7 6 5 4 12 14 9 6 8 6 6 6 8 10 5 15 15 17 17 17 19 20 19 17 14 12 11 10 9 9 9 9 9 9 8 8 8 8 8 7 8 7 6 6
10 5 6 8 7 6 11 12 13 9 9 8 9 10 3 2 6 13 16 16 17 17 16 15 14 13 12 12 11 10 10 10 9 9 8 8 8 8 8 8 8 7 7 6
12 8 4 3 3 2 7 14 17 10 6 10 12 11 2 3 2 6 11 14 14 15 15 15 15 15 15 14 13 12 11 11 10 9 9 9 8 8 8 8 8 7 7 6
10 9 14 17 9 12 11 13 17 16 12 15 20 13 5 4 5 6 9 13 14 16 17 17 17 17 16 15 14 13 12 12 11 10 10 10 10 9 9 8 8 8 7 7
10 10 12 15 11 8 10 15 21 26 27 20 19 21 17 11 13 12 11 12 14 15 17 19 19 17 16 16 15 14 13 13 13 12 12 11 10 9 8 8 8 8 7 7
11 9 8 15 15 12 12 17 21 26 24 28 25 26 10 11 11 11 13 15 16 16 20 19 18 17 18 18 17 16 15 14 13 13 13 11 10 10 10 9 9 8 7 6
10 9 9 15 13 9 24 31 21 22 22 19 30 30 6 10 12 14 16 17 17 17 18 19 19 19 18 18 17 17 15 12 13 12 11 11 11 11 10 10 9 10 9 8
15 13 8 8 10 23 23 11 22 28 27 22 20 11 11 15 13 12 13 18 17 16 16 16 14 14 12 12 13 12 11 12 13 12 11 11 11 11 10 9 10 9 7 8
19 16 11 10 17 17 16 7 12 18 26 25 23 16 9 7 5 5 7 12 15 14 11 11 11 10 11 12 12 12 12 12 12 13 12 12 12 11 11 11 11 9 8 8
15 15 13 12 11 13 9 2 6 12 19 12 17 17 12 12 10 10 7 7 8 8 8 8 9 8 10 10 12 13 12 12 13 14 12 11 11 11 12 12 10 7 7 8
13 13 18 19 15 10 5 3 5 11 11 2 8 11 13 14 9 5 10 8 8 8 8 9 10 9 9 10 11 11 11 12 11 9 8 9 10 10 10 8 7 6 7 6
13 11 12 11 13 12 6 5 9 5 0 1 0 4 8 5 6 8 9 9 10 8 8 9 9 8 7 9 11 10 10 8 7 8 8 8 8 8 7 8 7 6 7 7
8 8 6 8 6 0 4 3 1 2 2 0 1 3 7 7 6 6 7 9 8 9 9 7 9 9 7 7 9 10 8 7 8 8 8 7 6 6 6 7 8 6 6 6
4 1 3 3 2 1 0 1 0 1 1 1 2 4 6 7 7 7 8 8 8 8 7 7 9 9 7 6 6 6 7 8 9 8 7 6 7 6 5 5 6 6 7 7
5 6 4 3 2 1 4 5 4 2 2 3 3 3 5 7 7 7 7 8 7 6 6 7 8 8 7 7 6 5 7 8 8 7 7 6 6 6 6 5 5 6 5 7
6 7 8 7 9 8 8 8 8 5 4 4 4 4 3 6 7 7 7 6 7 7 6 6 6 6 6 6 6 5 5 7 8 7 6 5 5 5 5 4 3 9 9 11
Wind_Direction
182 208 211 209 214 243 288 314 299 297 118 187 229 246 210 186 201 211 195 181 178 162 134 138 139 140 133 130 130 129 126 129 125 112 100 91 80 72 65 60 56 55 56 56
178 231 232 233 231 231 251 263 269 278 138 195 262 262 247 183 200 204 200 187 177 155 148 155 154 153 149 143 141 140 139 126 100 93 95 97 103 87 78 68 61 57 56 56
207 198 222 223 234 240 239 237 244 250 168 204 269 270 241 220 199 199 201 187 176 168 165 165 163 156 148 143 140 130 117 108 107 110 111 112 100 91 75 67 65 58 60 59
231 242 195 206 211 207 243 233 232 254 269 248 202 269 238 222 199 199 200 191 180 168 163 164 163 155 148 139 130 123 121 121 127 135 135 131 123 117 109 101 86 68 58 59
217 195 178 201 208 197 215 37 203 227 248 269 260 272 251 220 214 213 205 197 184 168 163 164 162 151 142 140 134 127 124 126 131 124 119 118 116 115 114 108 98 84 68 62
240 177 187 207 170 190 128 100 81 168 233 251 218 237 257 209 213 208 202 194 183 167 160 155 146 139 140 139 136 136 131 124 121 119 120 127 129 131 128 123 115 103 90 75
232 216 188 121 115 141 146 150 196 228 223 242 201 222 248 217 204 202 189 182 174 166 163 159 156 158 157 156 153 148 142 137 133 127 126 132 133 133 133 132 128 123 110 94
203 217 188 185 182 172 191 180 181 212 230 253 213 228 247 90 27 23 142 159 164 167 169 168 168 166 163 161 159 156 151 145 139 134 133 132 131 129 127 127 128 123 121 118
209 226 164 176 180 162 171 217 216 240 265 277 249 251 241 81 223 203 162 163 173 173 173 171 170 168 164 163 165 160 154 149 144 140 136 134 130 127 127 125 120 119 124 125
218 215 125 107 109 272 216 171 159 199 215 246 253 231 225 197 215 202 189 182 179 175 175 174 172 169 165 164 162 156 155 154 149 145 146 140 134 133 133 130 131 133 134 131
216 187 143 148 190 186 183 196 190 195 204 213 263 250 226 189 196 195 195 188 182 181 181 178 174 168 162 161 164 161 160 156 155 154 149 143 142 140 139 139 142 141 140 141
199 195 197 205 204 214 200 192 186 190 221 218 245 259 340 47 186 182 187 187 185 183 180 175 169 166 168 171 173 171 168 165 164 158 151 152 150 148 150 151 149 145 145 146
158 165 206 270 190 220 225 212 210 215 211 220 231 254 329 20 40 167 177 180 180 178 177 175 173 177 179 179 179 178 176 170 166 161 159 161 162 162 164 159 153 151 151 151
158 172 201 218 197 179 201 208 208 208 225 235 236 243 223 212 215 201 184 179 179 180 181 182 184 185 185 183 182 182 181 174 170 168 169 173 174 173 170 161 157 159 159 163
156 203 225 240 234 191 189 203 210 216 222 229 240 239 233 210 209 205 187 175 179 183 187 190 191 189 185 184 184 185 184 179 176 175 180 183 176 171 167 164 163 163 167 174
175 204 219 243 238 241 240 224 214 221 228 236 247 250 220 213 201 188 180 181 187 190 193 195 193 189 188 188 186 185 186 181 176 182 187 181 173 173 174 171 167 167 173 176
181 191 206 241 231 231 241 234 221 224 224 225 240 247 216 221 204 191 185 186 192 194 195 195 195 193 191 189 185 186 184 173 176 184 184 180 176 179 180 172 171 179 183 183
187 195 213 236 214 233 245 218 212 227 234 226 235 240 200 212 210 197 184 183 192 196 196 196 193 190 182 175 174 171 167 169 178 184 186 182 179 182 176 174 184 188 184 192
196 198 212 223 239 252 265 210 189 209 238 227 232 235 206 181 171 219 189 179 187 187 182 182 180 175 166 166 164 160 166 170 178 187 189 186 182 180 178 187 194 191 187 196
202 204 216 223 229 233 252 195 185 178 243 228 212 218 191 153 193 220 177 150 147 145 147 149 147 146 154 159 152 157 167 172 186 192 190 183 181 183 189 196 194 187 190 200
196 208 223 232 238 243 252 231 138 178 239 265 204 197 176 187 207 160 138 131 130 128 129 130 134 140 148 144 145 157 166 186 191 177 170 173 181 189 192 189 182 178 184 188
190 202 215 222 234 238 177 164 183 201 337 331 120 164 161 140 107 117 126 128 127 123 124 126 126 128 132 138 145 159 182 184 159 156 165 176 181 182 179 177 177 173 176 187
201 198 193 201 218 246 160 170 126 120 133 177 103 124 131 127 130 128 130 134 134 135 135 130 131 129 133 147 154 169 179 153 149 155 167 170 166 167 166 170 172 168 174 190
216 104 140 166 202 194 109 339 251 111 123 98 113 136 138 141 143 139 139 140 139 138 139 133 134 140 151 162 164 161 149 146 149 159 163 159 159 160 158 163 168 175 185 197
175 159 162 173 148 139 261 244 226 200 153 119 107 133 149 142 147 147 148 150 146 139 138 143 151 158 163 159 159 152 146 144 150 155 157 159 163 164 168 179 190 191 197 197
177 173 177 200 184 181 208 211 206 203 201 173 148 140 145 155 153 147 150 151 148 146 143 147 156 159 159 153 152 149 149 150 150 156 162 163 162 162 164 170 203 234 226 233